When you browse on this site, cookies collect data to enhance your experience and personalize the content and advertising you see.
Visit our Privacy Policy to learn more. By continuing to use the site, you agree to this use of cookies and data.

Stündliche Wetter Subachoque

Heute, 7 Juli, Dienstag

Zeit Temperatur Niederschläge Wind Luftdruck Luftfeuchtigkeit
00:00 +11°C° 0.2 mm 1 m/S 553 mmHg 88%
01:00 +11°C° 0.2 mm 1 m/S 552 mmHg 89%
02:00 +11°C° 0.1 mm 1 m/S 552 mmHg 89%
03:00 +10°C° 0.1 mm 1 m/S 552 mmHg 89%
04:00 +10°C° 0.1 mm 1 m/S 552 mmHg 89%
05:00 +11°C° 0 mm 1 m/S 552 mmHg 88%
06:00 +11°C° 0 mm 1 m/S 553 mmHg 87%
07:00 +12°C° 0 mm 1 m/S 553 mmHg 87%
08:00 +12°C° 0.2 mm 1 m/S 554 mmHg 85%
09:00 +13°C° 0.2 mm 1 m/S 554 mmHg 83%
10:00 +14°C° 0.2 mm 1 m/S 555 mmHg 82%
11:00 +14°C° 0.6 mm 1 m/S 555 mmHg 81%
12:00 +15°C° 0.6 mm 1 m/S 554 mmHg 81%
13:00 +15°C° 0.6 mm 1 m/S 554 mmHg 81%
14:00 +15°C° 0.6 mm 1 m/S 554 mmHg 80%
15:00 +16°C° 0.6 mm 1 m/S 553 mmHg 78%
16:00 +16°C° 0.6 mm 1 m/S 553 mmHg 77%
17:00 +14°C° 0.4 mm 1 m/S 552 mmHg 82%
18:00 +13°C° 0.4 mm 1 m/S 552 mmHg 86%
19:00 +11°C° 0.4 mm 1 m/S 552 mmHg 91%
20:00 +11°C° 0.1 mm 1 m/S 552 mmHg 91%
21:00 +10°C° 0.1 mm 1 m/S 552 mmHg 91%
22:00 +10°C° 0.1 mm 1 m/S 552 mmHg 91%
23:00 +10°C° 0 mm 1 m/S 552 mmHg 91%

Morgen, 8 Juli, Mittwoch

Zeit Temperatur Niederschläge Wind Luftdruck Luftfeuchtigkeit
00:00 +10°C° 0 mm 1 m/S 552 mmHg 90%
01:00 +8°C° 0 mm 2 m/S 551 mmHg 90%
02:00 +8°C° 0 mm 2 m/S 551 mmHg 90%
03:00 +8°C° 0 mm 2 m/S 551 mmHg 90%
04:00 +8°C° 0 mm 2 m/S 551 mmHg 89%
05:00 +9°C° 0 mm 2 m/S 551 mmHg 88%
06:00 +9°C° 0 mm 2 m/S 552 mmHg 86%
07:00 +11°C° 0 mm 1 m/S 552 mmHg 84%
08:00 +13°C° 0.1 mm 1 m/S 554 mmHg 77%
09:00 +15°C° 0.1 mm 1 m/S 555 mmHg 70%
10:00 +18°C° 0.1 mm 1 m/S 556 mmHg 62%
11:00 +18°C° 0.7 mm 1 m/S 556 mmHg 66%
12:00 +18°C° 0.7 mm 1 m/S 555 mmHg 69%
13:00 +17°C° 0.7 mm 2 m/S 555 mmHg 73%
14:00 +17°C° 0.9 mm 2 m/S 554 mmHg 74%
15:00 +17°C° 0.9 mm 2 m/S 553 mmHg 75%
16:00 +18°C° 0.9 mm 1 m/S 553 mmHg 76%
17:00 +15°C° 0.8 mm 1 m/S 552 mmHg 80%
18:00 +13°C° 0.8 mm 1 m/S 552 mmHg 85%
19:00 +12°C° 0.8 mm 1 m/S 551 mmHg 89%
20:00 +11°C° 0.3 mm 1 m/S 551 mmHg 89%
21:00 +11°C° 0.3 mm 1 m/S 552 mmHg 89%
22:00 +9°C° 0.3 mm 2 m/S 552 mmHg 89%
23:00 +9°C° 0.1 mm 2 m/S 552 mmHg 89%

übermorgen, 9 Juli, Donnerstag

Zeit Temperatur Niederschläge Wind Luftdruck Luftfeuchtigkeit
00:00 +9°C° 0.1 mm 2 m/S 551 mmHg 89%
01:00 +8°C° 0.1 mm 2 m/S 551 mmHg 89%
02:00 +8°C° 0.1 mm 2 m/S 551 mmHg 88%
03:00 +8°C° 0.1 mm 2 m/S 551 mmHg 88%
04:00 +8°C° 0.1 mm 2 m/S 551 mmHg 87%
05:00 +8°C° 0 mm 2 m/S 551 mmHg 87%
06:00 +9°C° 0 mm 2 m/S 552 mmHg 86%
07:00 +10°C° 0 mm 1 m/S 552 mmHg 85%
08:00 +12°C° 0 mm 1 m/S 554 mmHg 78%
09:00 +14°C° 0 mm 1 m/S 555 mmHg 71%
10:00 +16°C° 0 mm 1 m/S 556 mmHg 64%
11:00 +17°C° 0.3 mm 2 m/S 555 mmHg 64%
12:00 +17°C° 0.3 mm 2 m/S 555 mmHg 64%
13:00 +18°C° 0.3 mm 2 m/S 555 mmHg 64%
14:00 +17°C° 0.5 mm 2 m/S 554 mmHg 68%
15:00 +17°C° 0.5 mm 2 m/S 553 mmHg 72%
16:00 +16°C° 0.5 mm 2 m/S 553 mmHg 76%
17:00 +15°C° 0.6 mm 1 m/S 552 mmHg 81%
18:00 +13°C° 0.6 mm 1 m/S 552 mmHg 87%
19:00 +12°C° 0.6 mm 1 m/S 552 mmHg 92%
20:00 +11°C° 0.6 mm 1 m/S 552 mmHg 92%
21:00 +11°C° 0.6 mm 1 m/S 552 mmHg 91%
22:00 +10°C° 0.6 mm 1 m/S 552 mmHg 90%
23:00 +9°C° 0.2 mm 2 m/S 552 mmHg 91%

10 Juli, Freitag

Zeit Temperatur Niederschläge Wind Luftdruck Luftfeuchtigkeit
00:00 +9°C° 0.2 mm 2 m/S 552 mmHg 91%
01:00 +8°C° 0.2 mm 2 m/S 551 mmHg 91%
02:00 +8°C° 0 mm 2 m/S 551 mmHg 91%
03:00 +8°C° 0 mm 2 m/S 551 mmHg 90%
04:00 +8°C° 0 mm 2 m/S 551 mmHg 90%
05:00 +8°C° 0 mm 2 m/S 551 mmHg 89%
06:00 +9°C° 0 mm 2 m/S 552 mmHg 87%
07:00 +10°C° 0 mm 2 m/S 553 mmHg 85%
08:00 +13°C° 0 mm 1 m/S 554 mmHg 77%
09:00 +15°C° 0 mm 1 m/S 555 mmHg 69%
10:00 +18°C° 0 mm 1 m/S 556 mmHg 61%
11:00 +18°C° 0.4 mm 1 m/S 556 mmHg 64%
12:00 +18°C° 0.4 mm 1 m/S 555 mmHg 68%
13:00 +17°C° 0.4 mm 2 m/S 555 mmHg 72%
14:00 +16°C° 0.8 mm 2 m/S 554 mmHg 75%
15:00 +16°C° 0.8 mm 1 m/S 554 mmHg 77%
16:00 +16°C° 0.8 mm 1 m/S 553 mmHg 80%
17:00 +14°C° 0.7 mm 1 m/S 553 mmHg 83%
18:00 +13°C° 0.7 mm 1 m/S 553 mmHg 87%
19:00 +12°C° 0.7 mm 1 m/S 552 mmHg 90%
20:00 +12°C° 0.2 mm 1 m/S 553 mmHg 90%
21:00 +11°C° 0.2 mm 1 m/S 553 mmHg 89%
22:00 +11°C° 0.2 mm 1 m/S 553 mmHg 89%
23:00 +11°C° 0.2 mm 1 m/S 553 mmHg 90%

11 Juli, Samstag

Zeit Temperatur Niederschläge Wind Luftdruck Luftfeuchtigkeit
00:00 +11°C° 0.2 mm 1 m/S 553 mmHg 90%
01:00 +11°C° 0.2 mm 1 m/S 552 mmHg 90%
02:00 +11°C° 0.1 mm 1 m/S 552 mmHg 91%
03:00 +10°C° 0.1 mm 1 m/S 552 mmHg 91%
04:00 +10°C° 0.1 mm 1 m/S 551 mmHg 92%
05:00 +11°C° 0 mm 1 m/S 552 mmHg 90%
06:00 +11°C° 0 mm 1 m/S 552 mmHg 89%
07:00 +11°C° 0 mm 1 m/S 553 mmHg 88%
08:00 +13°C° 0 mm 1 m/S 553 mmHg 82%
09:00 +14°C° 0 mm 1 m/S 554 mmHg 76%
10:00 +15°C° 0 mm 1 m/S 555 mmHg 71%
11:00 +16°C° 0.3 mm 1 m/S 555 mmHg 69%
12:00 +18°C° 0.3 mm 1 m/S 555 mmHg 68%
13:00 +19°C° 0.3 mm 1 m/S 555 mmHg 67%
14:00 +18°C° 0.6 mm 1 m/S 554 mmHg 70%
15:00 +17°C° 0.6 mm 2 m/S 553 mmHg 73%
16:00 +16°C° 0.6 mm 2 m/S 553 mmHg 76%
17:00 +15°C° 0.7 mm 1 m/S 553 mmHg 81%
18:00 +14°C° 0.7 mm 1 m/S 552 mmHg 85%
19:00 +12°C° 0.7 mm 1 m/S 552 mmHg 89%
20:00 +12°C° 0.4 mm 1 m/S 552 mmHg 90%
21:00 +12°C° 0.4 mm 1 m/S 553 mmHg 90%
22:00 +12°C° 0.4 mm 1 m/S 553 mmHg 90%
23:00 +11°C° 0.1 mm 1 m/S 553 mmHg 91%

12 Juli, Sonntag

Zeit Temperatur Niederschläge Wind Luftdruck Luftfeuchtigkeit
00:00 +11°C° 0.1 mm 1 m/S 552 mmHg 91%
01:00 +10°C° 0.1 mm 1 m/S 552 mmHg 92%
02:00 +10°C° 0 mm 1 m/S 551 mmHg 92%
03:00 +10°C° 0 mm 1 m/S 551 mmHg 92%
04:00 +10°C° 0 mm 1 m/S 551 mmHg 92%
05:00 +10°C° 0 mm 1 m/S 552 mmHg 90%
06:00 +11°C° 0 mm 1 m/S 552 mmHg 89%
07:00 +11°C° 0 mm 1 m/S 553 mmHg 88%
08:00 +13°C° 0.1 mm 1 m/S 554 mmHg 83%
09:00 +14°C° 0.1 mm 1 m/S 555 mmHg 78%
10:00 +16°C° 0.1 mm 1 m/S 556 mmHg 73%
11:00 +16°C° 0.7 mm 1 m/S 555 mmHg 74%
12:00 +16°C° 0.7 mm 2 m/S 555 mmHg 76%
13:00 +16°C° 0.7 mm 2 m/S 554 mmHg 77%
14:00 +16°C° 1 mm 2 m/S 554 mmHg 79%
15:00 +16°C° 1 mm 2 m/S 553 mmHg 81%
16:00 +15°C° 1 mm 1 m/S 553 mmHg 83%
17:00 +14°C° 0.6 mm 1 m/S 553 mmHg 86%
18:00 +13°C° 0.6 mm 1 m/S 553 mmHg 89%
19:00 +12°C° 0.6 mm 1 m/S 552 mmHg 92%
20:00 +12°C° 0.2 mm 1 m/S 553 mmHg 92%
21:00 +11°C° 0.2 mm 1 m/S 553 mmHg 92%
22:00 +11°C° 0.2 mm 1 m/S 553 mmHg 91%
23:00 +11°C° 0 mm 1 m/S 553 mmHg 91%
Mehr zeigen